Tracking 28081 objects as of 27-Sep-2023
HD Live streaming from Space Station
objects crossing your sky now

FENGYUN 1C DEB

Track FENGYUN 1C DEB now!
10-day predictions


NORAD ID: 31751
Int'l Code: 1999-025CFA
Perigee: 656.7 km
Apogee: 718.4 km
Inclination: 98.9 °
Period: 98.4 minutes
Semi major axis: 7058 km
RCS: 0.0135 m2 (small)
Launch date: May 10, 1999
Source: People's Republic of China (PRC)
Launch site: Taiyaun Space Center, China (TSC)

Note: This is SATELLITE DEBRIS
Your satellite tracking list
Your tracking list is empty




NASA's NSSDC Master Catalog

Two Line Element Set (TLE):
1 31751U 99025CFA 23268.29928440  .00082388  00000-0  15348-1 0  9992
2 31751  98.8726 109.3574 0043724 300.6321  59.0571 14.63956865855641
Source of the keplerian elements: AFSPC